Date,TemperatureHighF,TemperatureAvgF,TemperatureLowF,DewpointHighF,DewpointAvgF,DewpointLowF,HumidityHigh,HumidityAvg,HumidityLow,PressureMaxIn,PressureMinIn,WindSpeedMaxMPH,WindSpeedAvgMPH,GustSpeedMaxMPH,PrecipitationSumIn
2013-7-4,93,79,65,55,49,42,59,37,22,0.00,40.00,5,2,16,0.00
2013-7-5,89,78,59,52,39,26,60,28,11,0.00,40.00,7,3,21,0.00
2013-7-6,88,74,55,45,37,31,50,28,15,0.00,40.00,6,2,19,0.00
2013-7-7,88,79,56,45,37,33,48,24,15,0.00,40.00,5,2,16,0.00
2013-7-8,88,72,51,41,36,30,45,29,14,0.00,40.00,6,2,17,0.00
2013-7-9,87,78,54,45,34,29,42,23,15,0.00,40.00,5,3,16,0.00
2013-7-10,87,75,55,45,32,-100,49,24,14,0.00,40.00,7,3,18,0.00
2013-7-11,85,70,55,46,38,33,57,34,16,0.00,40.00,6,2,18,0.00
2013-7-12,84,72,49,48,39,29,61,33,15,0.00,40.00,5,3,14,0.00
2013-7-13,83,70,47,40,36,28,60,33,15,0.00,40.00,5,2,13,0.00
2013-7-14,88,75,52,47,40,30,58,31,14,0.00,40.00,6,3,15,0.00
2013-7-15,85,77,55,47,44,41,58,33,23,0.00,40.00,5,2,14,0.00
2013-7-16,81,74,53,42,39,33,63,31,18,0.00,40.00,6,4,17,0.00
2013-7-17,84,72,47,44,39,28,70,34,17,0.00,40.00,5,2,12,0.00
2013-7-18,87,75,50,47,44,38,63,35,20,0.00,40.00,4,2,12,0.00
2013-7-19,92,79,54,50,46,38,59,35,20,0.00,40.00,5,2,14,0.00
2013-7-20,96,78,57,52,44,-100,60,34,15,0.00,40.00,4,2,12,0.00
2013-7-21,95,80,60,56,52,49,69,40,26,0.00,40.00,5,2,12,0.00
2013-7-22,89,75,58,56,46,41,70,38,21,0.00,40.00,4,2,11,0.00
2013-7-23,82,70,59,61,53,43,100,58,32,0.00,40.00,3,2,9,0.16
2013-7-24,87,76,54,56,51,48,84,45,28,0.00,40.00,4,2,14,0.00
2013-7-25,89,74,57,55,52,46,77,49,32,0.00,40.00,8,2,19,0.00
2013-7-26,88,72,59,57,51,47,71,50,28,0.00,40.00,5,2,13,0.00
2013-7-27,87,75,57,49,46,42,69,38,22,0.00,40.00,5,2,14,0.00
2013-7-28,85,72,55,50,43,36,68,39,19,0.00,40.00,5,2,16,0.00
2013-7-29,85,68,51,43,39,32,64,39,17,0.00,40.00,6,2,20,0.00
2013-7-30,84,72,52,48,40,36,62,34,18,0.00,40.00,5,3,16,0.00
2013-7-31,82,70,54,45,40,36,55,36,21,0.00,40.00,5,2,14,0.00